Time,TemperatureF,DewpointF,PressureIn,WindDirection,WindDirectionDegrees,WindSpeedMPH,WindSpeedGustMPH,Humidity,HourlyPrecipIn,Conditions,Clouds,dailyrainin,SoftwareType,DateUTC
2013-10-23 00:14:00,36.0,35.0,29.88,NNW,345,0.0,3.0,95,0.06,,,0.31,,2013-10-23 04:14:00,
2013-10-23 00:24:00,35.0,34.0,29.88,NE,38,0.0,4.0,95,0.06,,,0.33,,2013-10-23 04:24:00,
2013-10-23 00:55:00,35.0,34.0,29.87,NNE,13,1.0,4.0,96,0.04,,,0.34,,2013-10-23 04:55:00,
2013-10-23 01:23:00,36.0,35.0,29.87,NE,49,0.0,3.0,96,0.02,,,0.35,,2013-10-23 05:23:00,
2013-10-23 01:53:00,36.0,35.0,29.87,NNW,334,1.0,6.0,96,0.02,,,0.36,,2013-10-23 05:53:00,
2013-10-23 02:22:00,36.0,35.0,29.87,NE,39,2.0,6.0,96,0.02,,,0.37,,2013-10-23 06:22:00,
2013-10-23 02:42:00,36.0,35.0,29.87,NNE,22,0.0,4.0,96,0.01,,,0.37,,2013-10-23 06:42:00,
2013-10-23 02:52:00,36.0,35.0,29.87,North,355,0.0,3.0,96,0.01,,,0.37,,2013-10-23 06:52:00,
2013-10-23 03:22:00,36.0,35.0,29.88,NNW,340,1.0,5.0,96,0.00,,,0.37,,2013-10-23 07:22:00,
2013-10-23 03:52:00,36.0,35.0,29.88,NW,319,0.0,4.0,97,0.00,,,0.37,,2013-10-23 07:52:00,
2013-10-23 04:22:00,36.0,35.0,29.89,WNW,300,0.0,4.0,96,0.00,,,0.37,,2013-10-23 08:22:00,
2013-10-23 04:52:00,36.0,35.0,29.88,NW,318,0.0,6.0,96,0.00,,,0.37,,2013-10-23 08:52:00,
2013-10-23 05:02:00,36.0,35.0,29.88,NW,318,0.0,6.0,96,0.00,,,0.37,,2013-10-23 09:02:00,
2013-10-23 05:22:00,36.0,35.0,29.89,WNW,300,0.0,2.0,96,0.00,,,0.37,,2013-10-23 09:22:00,
2013-10-23 05:53:00,36.0,35.0,29.89,WNW,300,0.0,0.0,97,0.00,,,0.37,,2013-10-23 09:53:00,
2013-10-23 06:23:00,36.0,35.0,29.89,WNW,300,0.0,1.0,97,0.00,,,0.37,,2013-10-23 10:23:00,
2013-10-23 06:53:00,36.0,35.0,29.90,WNW,299,1.0,2.0,97,0.00,,,0.37,,2013-10-23 10:53:00,
2013-10-23 07:22:00,36.0,35.0,29.91,West,267,0.0,3.0,97,0.00,,,0.37,,2013-10-23 11:22:00,
2013-10-23 07:52:00,35.0,34.0,29.92,WNW,286,0.0,3.0,96,0.00,,,0.37,,2013-10-23 11:52:00,
2013-10-23 08:22:00,35.0,34.0,29.93,WNW,286,0.0,1.0,96,0.00,,,0.37,,2013-10-23 12:22:00,
2013-10-23 08:52:00,34.0,33.0,29.93,WNW,286,0.0,1.0,96,0.00,,,0.37,,2013-10-23 12:52:00,
2013-10-23 09:12:00,33.0,32.0,29.94,WNW,286,0.0,0.0,96,0.00,,,0.37,,2013-10-23 13:12:00,
2013-10-23 09:22:00,33.0,32.0,29.95,WNW,286,0.0,1.0,96,0.00,,,0.37,,2013-10-23 13:22:00,
2013-10-23 09:52:00,34.0,33.0,29.96,WNW,286,0.0,1.0,97,0.00,,,0.37,,2013-10-23 13:52:00,
2013-10-23 10:22:00,36.0,35.0,29.96,WNW,292,0.0,1.0,97,0.00,,,0.37,,2013-10-23 14:22:00,
2013-10-23 10:52:00,37.0,36.0,29.96,WNW,288,1.0,4.0,96,0.00,,,0.37,,2013-10-23 14:52:00,
2013-10-23 11:22:00,39.0,37.0,29.97,NW,304,0.0,2.0,94,0.00,,,0.37,,2013-10-23 15:22:00,
2013-10-23 11:43:00,40.0,38.0,29.98,WNW,300,0.0,6.0,91,0.00,,,0.37,,2013-10-23 15:43:00,
2013-10-23 11:53:00,42.0,38.0,29.98,West,269,0.0,3.0,87,0.00,,,0.37,,2013-10-23 15:53:00,
2013-10-23 12:23:00,46.0,40.0,29.99,NW,326,1.0,3.0,79,0.00,,,0.37,,2013-10-23 16:23:00,
2013-10-23 12:53:00,46.0,39.0,30.00,West,261,1.0,4.0,77,0.00,,,0.37,,2013-10-23 16:53:00,
2013-10-23 13:22:00,46.0,38.0,29.99,WNW,296,1.0,3.0,74,0.00,,,0.37,,2013-10-23 17:22:00,
2013-10-23 13:44:00,46.0,37.0,30.00,West,268,0.0,4.0,71,0.00,,,0.37,,2013-10-23 17:44:00,
2013-10-23 13:52:00,46.0,37.0,29.99,WNW,288,0.0,2.0,72,0.00,,,0.37,,2013-10-23 17:52:00,
2013-10-23 14:22:00,46.0,36.0,29.99,West,271,0.0,3.0,69,0.00,,,0.37,,2013-10-23 18:22:00,
2013-10-23 14:41:00,45.0,35.0,29.99,NW,315,1.0,4.0,69,0.00,,,0.37,,2013-10-23 18:41:00,
2013-10-23 14:52:00,44.0,36.0,29.99,NW,309,0.0,2.0,74,0.00,,,0.37,,2013-10-23 18:52:00,
2013-10-23 15:12:00,44.0,36.0,29.98,NW,309,0.0,1.0,73,0.00,,,0.37,,2013-10-23 19:12:00,
2013-10-23 15:22:00,45.0,36.0,29.98,WNW,291,0.0,4.0,70,0.00,,,0.37,,2013-10-23 19:22:00,
2013-10-23 15:53:00,45.0,35.0,29.99,West,281,0.0,3.0,69,0.00,,,0.36,,2013-10-23 19:53:00,
2013-10-23 16:22:00,44.0,34.0,30.00,West,279,1.0,3.0,69,0.00,,,0.34,,2013-10-23 20:22:00,
2013-10-23 16:52:00,44.0,34.0,30.00,WSW,257,0.0,3.0,69,0.00,,,0.34,,2013-10-23 20:52:00,
2013-10-23 17:22:00,44.0,35.0,30.01,WSW,257,0.0,1.0,70,0.00,,,0.34,,2013-10-23 21:22:00,
2013-10-23 17:54:00,44.0,34.0,30.01,WSW,258,0.0,2.0,69,0.00,,,0.34,,2013-10-23 21:54:00,
2013-10-23 18:24:00,43.0,34.0,30.01,WSW,258,0.0,3.0,69,0.00,,,0.33,,2013-10-23 22:24:00,
2013-10-23 18:54:00,42.0,34.0,30.01,WSW,257,0.0,0.0,74,0.00,,,0.33,,2013-10-23 22:54:00,
2013-10-23 19:22:00,41.0,34.0,30.01,WSW,258,0.0,0.0,77,0.00,,,0.29,,2013-10-23 23:22:00,
2013-10-23 19:52:00,41.0,35.0,30.01,WSW,258,0.0,1.0,80,0.00,,,0.29,,2013-10-23 23:52:00,
2013-10-23 20:12:00,40.0,34.0,30.02,WSW,258,0.0,0.0,80,0.00,,,0.29,,2013-10-24 00:12:00,
2013-10-23 20:22:00,40.0,35.0,30.02,WSW,258,0.0,0.0,81,0.00,,,0.27,,2013-10-24 00:22:00,
2013-10-23 20:52:00,40.0,35.0,30.02,WSW,258,0.0,0.0,82,0.00,,,0.27,,2013-10-24 00:52:00,
2013-10-23 21:11:00,40.0,35.0,30.02,WSW,257,0.0,0.0,83,0.00,,,0.27,,2013-10-24 01:11:00,
2013-10-23 21:21:00,40.0,35.0,30.03,WSW,258,0.0,0.0,83,0.00,,,0.23,,2013-10-24 01:21:00,
2013-10-23 21:52:00,40.0,34.0,30.03,WSW,258,0.0,1.0,80,0.00,,,0.23,,2013-10-24 01:52:00,
2013-10-23 22:12:00,40.0,34.0,30.03,WSW,258,0.0,1.0,79,0.00,,,0.23,,2013-10-24 02:12:00,
2013-10-23 22:22:00,40.0,34.0,30.04,WSW,257,0.0,1.0,80,0.00,,,0.17,,2013-10-24 02:22:00,
2013-10-23 23:22:00,40.0,34.0,30.04,WSW,257,0.0,1.0,80,0.00,,,0.10,,2013-10-24 03:22:00,
2013-10-23 23:55:00,39.0,34.0,30.05,WSW,258,0.0,1.0,82,0.00,,,0.10,,2013-10-24 03:55:00,